Location: *
(44.1392°N, 4.8079°E)
Time: 14:36:35
(UTC+00:00)

Lacrosse 5 rocket - Pass Details

Date: 21 October 2021
Orbit: 459 x 633 km, 57.0° (Epoch: 04 December)

Event Time Altitude Azimuth Distance (km) Brightness Sun altitude
Exits shadow 03:33:56 38° 29° (NNE) 899 2.6 -27.4°
Drops below altitude 10° 03:36:47 10° 44° (NE) 1,931 4.8 -26.9°
Sets 03:39:09 0° 47° (NE) 2,862 5.9 -26.4°
